{"data":{"norad_id":47430,"intl_designator":"2021-006T","name":"ASTROCAST-0101","alt_names":[],"object_type":"PAYLOAD","status":"ACTIVE","operator":null,"country":"SWTZ","launch_date":"2021-01-24","launch_site_code":"AFETR","launch_vehicle":null,"mission":null,"orbit_class":"UNKNOWN","rcs_meters":null,"size_class":null,"mass_kg":null,"dimensions":null,"purposes":[],"wikipedia_slug":null,"has_3d_model":false,"image_url":null,"decayed_at":null,"tle_current":{"epoch":"2026-05-25T03:12:32.904288Z","epoch_age_seconds":73867,"freshness":"FRESH","line1":"1 47430U 21006T   26145.13371417  .00228274  00000+0  14341-2 0  9991","line2":"2 47430  97.2295 212.8610 0003578 235.2909 124.8020 15.76079794296310","mean_motion":15.76079794,"eccentricity":0.0003578,"inclination_deg":97.2295,"raan_deg":212.861,"arg_perigee_deg":235.2909,"mean_anomaly_deg":124.802,"bstar":0.0014341,"rev_number":29631,"period_min":91.365932453544,"perigee_km":339.15594888626,"apogee_km":343.96456424306,"semimajor_km":6719.6972565647,"source":"CELESTRAK","updated_at":"2026-05-25T13:37:56.472134Z"}}}